Tracking 33750 objects as of 15-Apr-2026
HD Live streaming from Space Station
objects crossing your sky now

STARLINK-31759

Track STARLINK-31759 now!
10-day predictions
STARLINK-31759 is classified as:


NORAD ID: 59740
Int'l Code: 2024-090L
Perigee: 489.4 km
Apogee: 491.0 km
Inclination: 43.0 °
Period: 94.3 minutes
Semi major axis: 6861 km
RCS: Unknown
Launch date: May 13, 2024
Source: United States (US)
Launch site: AIR FORCE EASTERN TEST RANGE (AFETR)
Your satellite tracking list
Your tracking list is empty




NASA's NSSDC Master Catalog

Two Line Element Set (TLE):
1 59740U 24090L   26105.02627990 -.00002991  00000-0 -99280-4 0  9994
2 59740  43.0056 338.6018 0001160 272.6650  87.4069 15.27560795108998
Source of the keplerian elements: AFSPC